www.pogodaiklimat.ru

Архив погоды в Гамбурге (Германия)

Время
(UTC), дата
13 21.05
14 21.05
15 21.05
16 21.05
17 21.05
18 21.05
19 21.05
20 21.05
21 21.05
22 21.05
23 21.05
00 22.05
01 22.05
02 22.05
03 22.05
04 22.05
05 22.05
06 22.05
07 22.05
08 22.05
09 22.05
10 22.05
11 22.05
12 22.05
13 22.05
14 22.05
15 22.05
16 22.05
17 22.05
18 22.05
19 22.05
20 22.05
21 22.05
22 22.05
23 22.05
00 23.05
01 23.05
02 23.05
03 23.05
04 23.05
05 23.05
06 23.05
07 23.05
08 23.05
09 23.05
10 23.05
11 23.05
12 23.05
13 23.05
14 23.05
15 23.05
16 23.05
17 23.05
18 23.05
19 23.05
20 23.05
21 23.05
22 23.05
23 23.05
00 24.05
01 24.05
02 24.05
03 24.05
04 24.05
05 24.05
06 24.05
07 24.05
08 24.05
09 24.05
10 24.05
11 24.05
12 24.05
13 24.05
14 24.05
15 24.05
16 24.05
17 24.05
18 24.05
19 24.05
20 24.05
21 24.05
22 24.05
23 24.05
00 25.05
01 25.05
02 25.05
03 25.05
04 25.05
05 25.05
06 25.05
07 25.05
08 25.05
09 25.05
10 25.05
11 25.05
12 25.05
13 25.05
14 25.05
15 25.05
16 25.05
17 25.05
18 25.05
19 25.05
20 25.05
21 25.05
22 25.05
23 25.05
00 26.05
01 26.05
02 26.05
03 26.05
04 26.05
05 26.05
06 26.05
07 26.05
08 26.05
09 26.05
10 26.05
11 26.05
12 26.05
13 26.05
14 26.05
15 26.05
16 26.05
17 26.05
18 26.05
19 26.05
20 26.05
21 26.05
22 26.05
23 26.05
00 27.05
01 27.05
02 27.05
03 27.05
04 27.05
05 27.05
06 27.05
07 27.05
08 27.05
09 27.05
10 27.05
11 27.05
12 27.05
13 27.05
14 27.05
15 27.05
16 27.05
17 27.05
18 27.05
19 27.05
20 27.05
21 27.05
22 27.05
23 27.05
00 28.05
01 28.05
02 28.05
03 28.05
04 28.05
05 28.05
06 28.05
07 28.05
08 28.05
09 28.05
10 28.05
11 28.05
12 28.05
13 28.05
Ветер
(напр.,м/с)
Видим. Явления Облачность Т
(С)
Тd
(С)
f
(%)
Тe
(С)
Тes
(С)
Комфортность P
(гПа)
Po
(гПа)
Тmin
(С)
Tmax
(С)
R
(мм)
R24
(мм)
S
(см)
З 10 45 км 8/8 800 м
[Cu med, cong]
+15.8 +8.2 61 +14 +14 тепло 1017.3 1015.5
З 10 50 км 6/6 870 м
[Cu med, cong]
+16.9 +8.6 58 +15 +16 тепло 1017.7 1015.9
СЗ 10 50 км 6/5 800 м
[Cu med, cong Ci fib]
+15.4 +9.3 67 +13 +13 прохладно 1017.9 1016.1
СЗ 9 50 км 5/5 800 м
[Cu med, cong Ci fib]
+14.9 +8.8 67 +13 +13 по сезону 1018.2 1016.4
З 7 50 км 5/4 800 м
[Cu med, cong Ci fib]
+15.0 +8.7 66 +13 +14 по сезону 1018.1 1016.3
СЗ 7 50 км 6/4 600 м
[Cu med, cong Ci fib]
+14.1 +9.0 71 +12 +12 прохладно 1018.4 1016.6 +11.7 +16.9 3
З 6 50 км 4/4 660 м
[Cu hum]
+12.9 +8.2 73 +11 +11 прохладно 1018.6 1016.8
З 4 45 км 8/5 570 м
[Sc Ac trans]
+12.1 +8.6 79 +10 +10 по сезону 1018.7 1016.9
З 4 40 км 9/0
[Ac trans]
+11.8 +8.7 81 +10 +10 по сезону 1018.9 1017.1
З 4 35 км 9/0
[Ac trans]
+11.4 +8.9 85 +9 +9 по сезону 1018.8 1017.0
З 4 30 км 9/0
[Ac trans]
+11.3 +8.8 85 +9 +9 по сезону 1018.3 1016.5
З 3 35 км 9/0
[Ac trans]
+11.1 +8.6 85 +9 +9 по сезону 1018.0 1016.2
З 2 30 км 8/0
[Ac trans]
+10.7 +8.7 87 +9 +9 по сезону 1017.8 1016.0
ЮЗ 2 28 км 9/5 600 м
[Sc Ac trans]
+9.7 +8.6 93 +8 +8 тепло 1017.6 1015.8
З 2 28 км 9/6 480 м
[Sc Ac trans]
+10.1 +8.9 92 +8 +8 по сезону 1017.5 1015.7
З 2 25 км 8/3 600 м
[Sc Ac trans]
+9.7 +8.8 94 +8 +8 по сезону 1017.5 1015.7
З 2 25 км 9/9 600 м
[Cu Sc]
+10.9 +9.4 90 +10 +10 тепло 1017.6 1015.8
З 2 30 км 9/9 300 м
[Cu Sc]
+11.5 +9.3 86 +10 +11 по сезону 1017.7 1015.9 +9.5 +14.1
З 3 30 км 9/9 330 м
[Cu Sc]
+12.3 +9.5 83 +11 +11 тепло 1017.6 1015.8
З 3 40 км 8/6 500 м
[Cu med, cong Ac trans Ci fib]
+12.9 +9.0 77 +12 +14 тепло 1017.5 1015.7
ЮЗ 2 45 км 5/5 600 м
[Cu Sc]
+14.4 +8.8 69 +14 +20 по сезону 1017.2 1015.4
СЗ 3 45 км 4/4 930 м
[Cu Sc]
+15.5 +7.6 59 +15 +22 тепло 1017.1 1015.3
СЗ 4 45 км 4/4 1080 м
[Cu Sc]
+16.8 +7.4 54 +16 +23 тепло 1016.9 1015.1
СЗ 5 60 км 4/4 1200 м
[Cu med, cong]
+17.0 +7.6 54 +16 +21 по сезону 1016.4 1014.6
СЗ 4 60 км 5/5 1200 м
[Cu med, cong]
+16.6 +7.5 55 +16 +21 по сезону 1016.1 1014.3
ЮЗ 3 65 км 3/3 1500 м
[Cu med, cong]
+18.4 +6.8 47 +19 +25 тепло 1015.6 1013.8
СЗ 3 65 км 3/3 1500 м
[Cu hum Ci fib]
+18.4 +6.6 46 +19 +24 тепло 1015.1 1013.3
С 4 65 км 5/3 1500 м
[Cu Sc Cs]
+18.1 +8.6 54 +18 +20 тепло 1014.7 1012.9
СЗ 2 60 км 9/4 1500 м
[Cu Sc Cs]
+17.5 +7.1 50 +18 +19 тепло 1014.4 1012.6
СВ 1 60 км 9/5 1500 м
[Cu Sc Cs]
+17.6 +8.6 56 +19 +19 тепло 1014.6 1012.8 +11.6 +19.1
С 3 50 км 9/8 1230 м
[Cu Sc Ci sp]
+15.7 +7.6 59 +15 +15 по сезону 1014.4 1012.6
С 1 50 км 5/1 1380 м
[Sc Ci sp]
+13.5 +7.9 69 +14 +14 по сезону 1014.2 1012.4
В 2 50 км 5/1 1440 м
[Sc Ci sp]
+13.4 +9.6 78 +13 +13 по сезону 1013.8 1012.0
В 3 45 км 6/0
[Ci sp]
+13.1 +9.9 81 +12 +12 по сезону 1013.4 1011.6
В 3 45 км 8/0
[Ci sp]
+12.3 +9.3 82 +11 +11 тепло 1013.4 1011.6
В 3 45 км 8/0
[Ci sp]
+12.1 +8.9 81 +11 +11 по сезону 1012.7 1010.9
ЮВ 2 45 км 8/0
[Ci sp]
+11.2 +8.4 83 +10 +10 тепло 1012.5 1010.7
ЮВ 3 45 км 9/0
[Ac As]
+11.2 +8.7 85 +9 +9 тепло 1011.9 1010.1
ЮВ 3 45 км 9/0
[Ac As]
+10.7 +8.3 85 +9 +9 по сезону 1011.1 1009.3
В 4 45 км 8/0
[Ac As]
+10.8 +8.0 83 +8 +8 по сезону 1010.8 1009.0
ЮВ 4 40 км 4/0
[Ac trans]
+12.2 +7.7 74 +10 +11 тепло 1010.5 1008.7
ЮВ 5 45 км 3/0
[Ac trans]
+14.5 +8.0 65 +13 +15 тепло 1009.4 1007.6 +10.3 +17.7
ЮВ 6 45 км 6/0
[Ac trans Ci]
+16.2 +8.2 59 +15 +17 тепло 1008.9 1007.1
ЮВ 6 45 км 8/0
[Ac trans Ci fib]
+17.8 +9.1 57 +17 +20 тепло 1008.3 1006.5
ЮВ 7 45 км 5/0
[Ac trans Ci fib]
+19.0 +9.2 53 +19 +22 тепло 1007.6 1005.8
ЮВ 8 45 км 6/0
[Ac trans Ci fib]
+20.8 +9.7 49 +22 +24 комфорт 1006.6 1004.8
Ю 9 45 км 8/0
[Ac trans Ci fib]
+21.3 +9.7 47 +23 +24 комфорт 1006.1 1004.3
ЮВ 8 45 км 8/0
[Ac trans Ci fib]
+21.9 +9.8 46 +23 +26 комфорт 1005.3 1003.6
ЮВ 8 45 км 6/0
[Ac trans Ci fib]
+22.1 +10.2 47 +24 +26 комфорт 1004.2 1002.5
ЮВ 7 45 км 3/0
[Ac lent Ci fib]
+22.7 +9.6 43 +24 +27 комфорт 1003.3 1001.6
ЮВ 8 45 км 4/0
[Ac lent Ci fib]
+22.5 +10.1 45 +24 +26 комфорт 1002.5 1000.8
ЮВ 8 45 км 5/0
[Ac trans Ci fib]
+22.4 +10.0 45 +24 +25 комфорт 1001.3 999.6
ЮВ 8 45 км 6/0
[Ac trans Ci sp]
+21.9 +10.1 47 +24 +24 комфорт 1000.3 998.6
В 6 45 км 9/0
[Ac trans Ci sp]
+21.5 +10.0 48 +23 +23 комфорт 999.6 997.9 +14.4 +23.1
В 7 45 км 9/0
[Ac As Ci sp]
+21.3 +10.2 49 +23 +23 комфорт 999.0 997.3
В 5 45 км 9/1 2000 м
[Sc Ac As Ci sp]
+20.2 +10.1 52 +22 +22 комфорт 998.5 996.8
В 7 40 км 9/9 1050 м
[Cu Sc]
+20.0 +9.7 51 +21 +21 комфорт 997.7 996.0
ЮВ 7 8000 м слаб. ливневой дождь 10/9 480 м
[Cu Sc]
+18.1 +11.7 66 +17 +17 тепло 997.5 995.7
ЮВ 4 18 км слаб. ливневой дождь 10/9 540 м
[Cu Sc]
+15.7 +13.6 87 +15 +15 тепло 997.5 995.7
В 3 25 км в посл. час ливневой дождь 10/9 600 м
[Cu Sc]
+15.3 +13.6 90 +15 +15 тепло 996.7 994.9 4
Ю 3 15 км слаб. ливневой дождь 10/9 150 м
[Cu Sc]
+15.5 +13.6 88 +15 +15 тепло 996.7 994.9
ЮЗ 4 12 км слаб. ливневой дождь 10/9 180 м
[Cb calv]
+15.8 +14.6 93 +15 +15 тепло 997.2 995.4
З 4 20 км в посл. час ливневой дождь 10/9 240 м
[St]
+14.5 +13.5 94 +13 +13 тепло 998.3 996.5 0.4
З 5 15 км в посл. час ливневой дождь 10/9 240 м
[Cu Sc]
+14.0 +12.8 92 +12 +12 тепло 999.3 997.5
ЮЗ 4 30 км слаб. дождь 9/9 420 м
[Cu Sc]
+13.9 +12.2 89 +12 +12 тепло 999.9 998.1
З 4 35 км в посл. час дождь {ливн. дождь} 9/6 300 м
[Cu Sc Ci fib]
+14.5 +11.6 83 +13 +14 тепло 1000.5 998.7 +13.9 +21.6 4
ЮЗ 5 35 км 9/9 500 м
[Cu Sc]
+14.6 +11.2 80 +13 +13 тепло 1001.3 999.5
ЮЗ 5 30 км 9/9 500 м
[Cu Sc]
+16.0 +12.2 78 +15 +15 тепло 1001.6 999.8
ЮЗ 8 35 км 9/6 600 м
[Cu Sc Ac trans]
+17.2 +12.5 74 +16 +16 тепло 1002.1 1000.3
ЮЗ 7 25 км слаб. ливневой дождь 9/8 660 м
[Cu Sc Ac trans]
+16.4 +11.6 73 +15 +16 тепло 1002.5 1000.7
ЮЗ 6 12 км слаб. дождь {ливн. дождь} 10/6 600 м
[Cu Sc As op]
+15.5 +10.9 74 +14 +15 тепло 1003.1 1001.3
ЮЗ 6 20 км слаб. дождь {ливн. дождь} 9/1 630 м
[Cu med, cong Ac As]
+14.5 +11.1 80 +13 +15 прохладно 1004.0 1002.2 0.2
ЮЗ 6 30 км слаб. ливневой дождь 9/6 700 м
[Cu Sc Ac trans Ci fib]
+15.9 +11.1 73 +15 +16 по сезону 1004.6 1002.8
ЮЗ 7-11
{13}
40 км в посл. час ливневой дождь 9/8 1000 м
[Cu Sc Ac trans Ci fib]
+18.0 +11.0 64 +17 +18 тепло 1004.8 1003.0
З 9 15 км слаб. ливневой дождь 9/9 1140 м
[Cb cap]
+15.4 +8.7 64 +13 +13 прохладно 1005.7 1003.9 0.0
ЮЗ 6 40 км в посл. час ливневой дождь 9/3 900 м
[Cu Sc Ac trans Ci fib]
+15.7 +10.8 73 +14 +15 по сезону 1006.2 1004.4
ЮЗ 7 45 км осадки на расстоянии 9/6 960 м
[Cu Sc As trans Cs]
+15.8 +9.7 67 +14 +14 по сезону 1006.9 1005.1
З 4 45 км в посл. час ливневой дождь 9/8 600 м
[Cu Sc Ac trans Ci sp]
+13.8 +8.8 72 +12 +12 прохладно 1007.9 1006.1 +13.1 +18.8 0.8
ЮЗ 2 45 км 6/1 900 м
[Cu med, cong Ac trans Ci sp]
+12.8 +8.7 76 +12 +12 прохладно 1008.5 1006.7
ЮЗ 1 45 км 5/1 900 м
[Cu med, cong Ac trans Ci sp]
+11.1 +8.7 85 +11 +11 по сезону 1009.2 1007.4
Ю 1 45 км 4/1 900 м
[Cu Sc Ci sp]
+10.0 +8.9 93 +9 +9 прохладно 1009.6 1007.8
ЮЗ 3 45 км 4/1 900 м
[Cu Sc Ci fib]
+10.4 +8.3 87 +8 +8 прохладно 1010.0 1008.2
ЮЗ 3 15 км слаб. ливневой дождь 9/9 800 м
[Cb cap]
+11.8 +9.4 85 +10 +10 по сезону 1010.4 1008.6
ЮЗ 2 45 км в посл. час ливневой дождь 4/1 600 м
[Cu hum Ci sp]
+10.6 +9.3 92 +9 +9 по сезону 1010.7 1008.9 0.4
ЮЗ 3 30 км 8/8 800 м
[Cu Sc]
+10.4 +9.4 94 +8 +8 по сезону 1011.2 1009.4
ЮЗ 3 25 км 9/8 1020 м
[Sc Ac trans Ci sp]
+10.0 +9.0 93 +8 +8 тепло 1011.6 1009.8
ЮЗ 3 16 км 9/4 840 м
[Cu Sc Ac trans Ci sp]
+10.3 +9.4 94 +8 +8 по сезону 1011.7 1009.9
ЮЗ 2 15 км 3/1 930 м
[Cu hum Ci sp]
+8.8 +8.2 96 +7 +7 по сезону 1012.1 1010.3
ЮЗ 2 40 км 1/1 900 м
[Cu hum Ac trans]
+10.8 +9.6 92 +9 +11 тепло 1012.4 1010.6
ЮЗ 4 40 км 1/1 300 м
[Cu hum]
+12.5 +9.8 84 +11 +13 по сезону 1012.8 1011.0 +8.8 +13.9 0.4
ЮЗ 4 40 км 1/1 540 м
[Cu hum]
+13.8 +9.6 76 +12 +16 тепло 1013.0 1011.2
ЮЗ 6 50 км 3/3 720 м
[Cu med, cong]
+15.2 +9.2 67 +14 +16 тепло 1013.2 1011.4
ЮЗ 7 50 км 4/4 600 м
[Cu med, cong Ci fib]
+15.9 +8.5 61 +14 +17 по сезону 1013.1 1011.3
ЮЗ 7 50 км 8/5 1200 м
[Cu med, cong Ci fib]
+16.8 +8.1 56 +16 +17 тепло 1013.1 1011.3
ЮЗ 6 50 км 8/6 1200 м
[Cu med, cong Ci fib]
+17.9 +8.3 53 +17 +20 тепло 1013.1 1011.3
ЮЗ 8 50 км 8/4 1380 м
[Cu med, cong Ci sp]
+17.4 +7.4 52 +16 +18 по сезону 1012.8 1011.0
ЮЗ 7 50 км 8/4 1470 м
[Cu med, cong Ci fib]
+18.1 +7.5 50 +17 +20 по сезону 1012.5 1010.7
ЮЗ 9 55 км 8/3 1500 м
[Cu med, cong Ac trans Ci fib]
+18.6 +6.6 45 +18 +18 тепло 1012.3 1010.5
ЮЗ 7 55 км 9/4 1500 м
[Cb cap Ac As Ci fib]
+19.0 +7.0 46 +19 +20 тепло 1012.1 1010.3
ЮЗ 8 50 км в посл. час ливневой дождь 9/8 1500 м
[Cb cap Ac As]
+17.5 +6.7 49 +16 +17 по сезону 1012.5 1010.7
З 5 40 км слаб. ливневой дождь 9/8 600 м
[Cb cap Ac As]
+14.7 +8.8 68 +13 +13 по сезону 1013.3 1011.5
ЮЗ 2 40 км слаб. ливневой дождь 10/4 1000 м
[Cb cap Ac As]
+14.6 +9.4 71 +14 +15 по сезону 1013.3 1011.5 +12.4 +20.0 0.0
ЮЗ 3 40 км в посл. час ливневой дождь 10/9 1440 м
[Cb cap]
+14.3 +9.4 72 +13 +13 по сезону 1013.1 1011.3
ЮЗ 4 40 км в посл. час ливневой дождь 10/9 1350 м
[Cb cap]
+14.7 +9.0 69 +14 +14 по сезону 1013.4 1011.6
ЮЗ 4 45 км в посл. час ливневой дождь 10/9 1300 м
[Cu Sc]
+14.2 +9.3 72 +13 +13 по сезону 1013.3 1011.5 0.0
ЮЗ 4 40 км в посл. час ливневой дождь 10/9 1200 м
[Cb cap]
+14.4 +9.0 70 +13 +13 тепло 1013.0 1011.2
ЮЗ 7 15 км слаб. ливневой дождь 10/9 480 м
[Cb cap]
+12.6 +10.8 89 +10 +10 по сезону 1013.2 1011.4
ЮЗ 7 40 км в посл. час ливневой дождь 10/9 300 м
[Sc]
+12.9 +10.6 86 +10 +10 по сезону 1013.1 1011.3 0.2
ЮЗ 6 35 км 10/9 480 м
[Sc]
+13.4 +10.6 83 +11 +11 тепло 1012.8 1011.0
ЮЗ 6 40 км 9/9 480 м
[Sc]
+13.6 +10.8 83 +11 +11 тепло 1013.0 1011.2
З 5 35 км 10/9 480 м
[Sc]
+13.7 +11.0 84 +12 +12 тепло 1013.1 1011.3
ЮЗ 5 30 км 8/5 500 м
[Sc Ac trans Ci fib]
+13.6 +10.8 83 +12 +12 тепло 1013.2 1011.4
З 7 30 км 9/8 500 м
[Sc Ac trans Ci fib]
+14.0 +10.7 80 +12 +12 тепло 1013.7 1011.9
З 6 30 км 3/3 300 м
[Cu Sc Ac trans]
+14.6 +10.3 75 +13 +14 тепло 1014.2 1012.4 +12.6 +15.0 0.2
З 8 35 км 8/6 630 м
[Cu Sc Ci fib]
+15.0 +9.6 70 +13 +13 тепло 1014.8 1013.0
З 7 40 км 4/4 840 м
[Cu Sc Ci fib]
+16.1 +8.1 59 +15 +16 тепло 1015.5 1013.7
З 9 40 км 9/8 1000 м
[Sc Ac trans Ci fib]
+16.2 +7.8 57 +15 +15 тепло 1016.1 1014.3
З 9 45 км 6/5 1110 м
[Cu Sc Ci fib]
+16.6 +6.7 52 +15 +16 тепло 1016.7 1014.9
З 8 45 км 4/4 1200 м
[Cu Sc Ci fib]
+16.4 +7.3 55 +15 +17 тепло 1016.9 1015.1
З 7 55 км 9/9 1320 м
[Cu Sc]
+16.3 +7.2 55 +15 +15 по сезону 1017.1 1015.3
З 7 65 км 9/9 1260 м
[Cu Sc]
+16.2 +8.6 61 +15 +15 по сезону 1016.9 1015.1
З 7 65 км 9/9 1200 м
[Cu Sc]
+16.2 +8.4 60 +15 +15 тепло 1017.1 1015.3
З 6 60 км в посл. час дождь 9/9 1110 м
[Cu Sc]
+15.9 +8.4 61 +15 +15 по сезону 1016.9 1015.1 0.0
СЗ 4 5000 м дождь 10/10 500 м
[Sc]
+13.0 +10.7 86 +11 +11 по сезону 1017.3 1015.5
З 4 6000 м дождь 10/10 330 м
[Sc]
+12.6 +10.5 87 +11 +11 по сезону 1017.1 1015.3
ЮЗ 3 4900 м дождь 10/10 200 м
[Sc]
+12.1 +11.5 96 +10 +10 прохладно 1016.9 1015.1 +12.0 +18.0 1
З 3 9000 м дождь 10/9 180 м
[Sc]
+11.8 +11.0 95 +10 +10 по сезону 1016.3 1014.5
ЮЗ 3 10 км дождь 10/9 240 м
[Cu Sc]
+12.0 +11.1 94 +10 +10 по сезону 1015.9 1014.1
ЮЗ 5 18 км дождь 10/9 270 м
[Cu Sc]
+12.5 +11.6 94 +10 +10 по сезону 1014.8 1013.0 1
ЮЗ 7 9000 м в посл. час ливневой дождь 10/9 180 м
[Cu Sc]
+12.8 +11.9 94 +10 +10 по сезону 1014.1 1012.3
З 6 10 км слаб. ливневой дождь 10/9 240 м
[Cb calv]
+13.3 +12.5 95 +11 +11 тепло 1014.0 1012.2
З 5 20 км в посл. час ливневой дождь 8/8 300 м
[Cu Sc]
+13.5 +12.5 94 +11 +11 тепло 1013.8 1012.0 3
З 6 25 км в посл. час ливневой дождь 9/9 330 м
[Cu Sc]
+13.6 +12.0 90 +11 +11 тепло 1013.6 1011.8
З 5 25 км 9/9 480 м
[Cu Sc]
+12.9 +10.6 86 +11 +11 тепло 1013.8 1012.0
З 4 30 км {ливн. дождь} 8/8 540 м
[Cu Sc]
+11.9 +9.0 82 +10 +10 тепло 1013.9 1012.1 0.0
З 5 30 км 6/6 720 м
[Cu Sc]
+11.7 +7.9 77 +9 +9 тепло 1014.1 1012.3
З 6 35 км 1/1 720 м
[Cu Sc Ac cast]
+11.7 +6.9 72 +9 +9 тепло 1014.2 1012.4
З 6 35 км {ливн. дождь} 1/1 600 м
[Cu Sc Ac trans Ci fib]
+12.6 +6.0 64 +10 +12 по сезону 1014.4 1012.6 +11.5 +13.7 3
З 8 35 км 4/3 1000 м
[Cu Sc Ac trans Ci fib]
+13.2 +5.7 60 +11 +11 тепло 1014.5 1012.7
З 9 35 км 4/4 420 м
[Cu Sc Ac trans]
+13.7 +4.7 55 +11 +12 тепло 1014.4 1012.6
З 7 35 км в посл. час ливневой дождь 4/4 1000 м
[Cu Sc]
+14.0 +6.8 62 +12 +14 по сезону 1014.3 1012.5 0.0
З 10 25 км ливневой дождь 9/8 1080 м
[Cb cap Ac trans Ci fib]
+13.7 +5.3 57 +11 +11 тепло 1014.6 1012.8
З 9 8000 м слаб. ливневой дождь 9/9 240 м
[Cb cap]
+11.3 +7.1 75 +8 +8 по сезону 1015.1 1013.3
З 10 7000 м слаб. ливневой дождь 8/6 240 м
[Cb cap Ac trans Ci fib]
+13.2 +7.5 68 +10 +10 прохладно 1014.9 1013.1 0.7
З 11 40 км в посл. час ливневой дождь 5/5 870 м
[Cb cap Ci fib]
+14.3 +5.1 54 +12 +12 по сезону 1014.6 1012.8
СЗ 9 30 км в посл. час ливневой дождь 5/5 1050 м
[Cu med, cong Ci fib]
+13.6 +6.7 63 +11 +12 по сезону 1014.7 1012.9
З 12 30 км в посл. час ливневой дождь 6/6 1000 м
[Cu Sc Ac trans Ci fib]
+12.5 +6.7 68 +9 +9 прохладно 1015.1 1013.3 0.1
З 8 35 км в посл. час ливневой дождь 6/5 1000 м
[Cu Sc Ac trans Ci fib]
+13.3 +6.8 65 +11 +11 по сезону 1014.9 1013.1
З 8 30 км слаб. ливневой дождь 8/8 660 м
[Cb cap Ac trans Ci fib]
+11.6 +6.4 70 +8 +8 по сезону 1015.1 1013.3
З 10 40 км в посл. час ливневой дождь 6/6 600 м
[Cb cap]
+11.6 +6.2 69 +8 +8 прохладно 1014.8 1013.0 +10.7 +14.9 0.8
З 6 40 км в посл. час ливневой дождь 5/4 600 м
[Cb cap Ac trans]
+9.1 +7.2 88 +5 +5 прохладно 1014.9 1013.1
З 6 40 км в посл. час ливневой дождь 4/4 800 м
[Cu Sc]
+9.3 +7.6 89 +6 +6 по сезону 1014.9 1013.1
З 5 40 км {ливн. дождь} 1/1 700 м
[Cu Sc]
+9.1 +6.5 84 +6 +6 прохладно 1014.8 1013.0 2
З 5 40 км в посл. час ливневой дождь 3/3 750 м
[Cu Sc]
+9.3 +6.8 84 +6 +6 по сезону 1014.5 1012.7
З 5 40 км в посл. час ливневой дождь 3/3 800 м
[Cu Sc]
+9.2 +6.1 81 +6 +6 по сезону 1013.9 1012.1
З 6 40 км {ливн. дождь} 4/4 600 м
[Cb cap]
+9.1 +5.8 80 +5 +5 по сезону 1013.4 1011.6 2
З 9 6000 м ливневой дождь 10/9 210 м
[Cb cap]
+7.6 +5.8 88 +2 +2 по сезону 1013.5 1011.6
З 5 15 км слаб. ливневой дождь, в посл. час гроза 10/9 660 м
[Cb cap]
+7.7 +6.1 90 +4 +4 тепло 1013.0 1011.1
З 5 40 км в посл. час ливневой дождь {гроза} 4/4 600 м
[Cb cap]
+8.0 +6.4 90 +4 +4 по сезону 1012.6 1010.8 5
З 4 40 км в посл. час ливневой дождь 3/3 600 м
[Cb cap]
+8.1 +6.7 91 +5 +5 по сезону 1012.8 1011.0
З 5 40 км в посл. час ливневой дождь 5/5 480 м
[Cb calv Ci fib]
+9.7 +7.1 84 +6 +7 тепло 1012.9 1011.1
З 7 35 км слаб. ливневой дождь {гроза} 8/8 300 м
[Cb calv]
+10.7 +6.6 76 +7 +7 по сезону 1013.3 1011.5 +7.4 +11.6 7
З 8 35 км в посл. час ливневой дождь 6/5 540 м
[Cb calv Ci fib]
+11.6 +6.7 72 +8 +9 тепло 1013.6 1011.8
СЗ 10 25 км слаб. ливневой дождь 8/6 800 м
[Cb cap Ci fib]
+11.1 +5.9 70 +7 +7 тепло 1013.9 1012.1
СЗ 8 18 км слаб. ливневой дождь 9/9 600 м
[Cb cap]
+12.3 +7.9 74 +9 +9 по сезону 1014.2 1012.4 0.1
СЗ 7 25 км в посл. час ливневой дождь 9/9 570 м
[Cb cap]
+11.4 +7.6 77 +8 +9 по сезону 1014.6 1012.8
З 10 35 км 9/9 800 м
[Cb calv]
+12.4 +5.7 64 +9 +9 тепло 1014.6 1012.8
З 7 30 км в посл. час ливневой дождь 9/8 570 м
[Cu Sc Ci sp]
+11.6 +8.6 82 +8 +9 прохладно 1014.9 1013.1 0.4
З 10 35 км в посл. час ливневой дождь 9/9 800 м
[Cu Sc]
+12.6 +5.9 64 +9 +9 по сезону 1014.9 1013.1
Местоположение метеостанции Гамбург (Германия): широта 53.63 долгота 10.00 высота над уровнем моря 16 м.
В архиве по умолчанию представлена погода в Гамбурге за последнюю неделю. Архивные данные за месяц целиком и за предыдущие месяцы, начиная с января 2011 года, Вы можете получить, выбрав интересующий диапазон дат из раскрывающегося списка и нажав кнопку "Найти!".
*Определитесь, кто Вы:
Внимание! Время в таблицах - всемирное. Для получения местного времени необходимо прибавить поправку, которая равна 1 ч.
Смотрите также архив погоды в соседних городах и на ближайших метеорологических станциях:
Партнеры нашего сайта:      
Пояснения к столбцам:
  • Ветер - указаны скорость ветра в м/с - средняя за 10 мин, порывы в срок и между сроками (в фигурных скобках) и направление, откуда дует ветер: С - северный,
  • СВ - северо-восточный, В - восточный, ЮВ - юго-восточный, Ю - южный, ЮЗ - юго-западный, З - западный, СЗ - северо-западный.
  • Видимость - горизонтальная дальность видимости в метрах или километрах. При видимости от 1 до 10 км при отсутствии осадков обычно наблюдается дымка, при ухудшении видимости до 1 км и менее - туман. В сухую погоду видимость может ухудшаться дымом, пылью или мглою.
  • Явления - указаны атмосферные явления, наблюдавшиеся в срок или в последний час перед сроком; фигурными скобками обозначены явления, наблюдавшиеся между сроками (за 1-3 часа до срока); квадратными скобками обозначены град или гололедные отложения с указанием их диаметра в мм.
  • Облачность - указаны через наклонную черту общая и нижняя облачность в баллах и высота нижней границы облаков в метрах; квадратными скобками обозначены формы облаков: Ci - перистые, Cs - перисто-слоистые, Cc - перисто-кучевые, Ac - высококучевые, As - высокослоистые, Sc - слоисто-кучевые, Ns - слоисто-дождевые, Cu - кучевые, Cb - кучево-дождевые. Подробнее классификацию облаков см. в Атласе облаков (PDF).
  • T - Температура воздуха - температура, измеренная на высоте 2 м над землей.
  • Td - Температура точки росы - температура, при понижении до которой содержащийся в воздухе водяной пар достигнет насыщения.
  • f - Относительная влажность воздуха - влажноcть воздуха, измеренная на высоте 2 м над землей.
  • Te - Эффективная температура - температура, которую ощущает одетый по сезону человек в тени. Характеристика душности погоды. При расчете учитывается влияние влажности воздуха и скорости ветра на теплоощущения человека.
  • Tes - Эффективная температура на солнце - температура, которую ощущает человек, с поправкой на солнечный нагрев. Характеристика знойности погоды. Зависит от высоты солнца над горизонтом, облачности и скорости ветра. Ночью, в пасмурную погоду, а также при ветре 12 м/с и более поправка равна нулю.
  • P - Атмосферное давление - приведенное к уровню моря атмосферное давление.
  • Po - Атмосферное давление - измеренное на уровне метеостанции атмосферное давление.
  • Tmin - Минимальная температура - минимум температуры воздуха на высоте 2 м над землей.
  • Tmax - Максимальная температура - максимум температуры воздуха на высоте 2 м над землей.
  • R - Количество осадков - Количество выпавших осадков за период времени, мм. При наведении курсора мыши на число - период времени, за который выпало указанное количество осадков.
  • R24 - Количество осадков - Количество выпавших осадков за 24 часа, мм.
  • S - Снежный покров - Высота снежного покрова, см. При наведении курсора мыши на число - состояние снежного покрова и степень покрытия местности в баллах.